sat.trackr.live / text

‹ back to catalog

STARLINK-11471 [DTC]

NORAD 62225 · 2024-231H

PAYLOAD ACTIVE UNKNOWN

§ Identity

Operator
Country
US
Launch date
2024-12-05
Launch site
AFWTR
Launch vehicle
Mass (kg)
RCS (m²)

Purposes: comms

External: N2YO · Heavens-Above · Gunter

§ Orbital elements

Epoch: 2026-05-25T02:06:35.404128Z

Period
91.73 min
Inclination
53.1565°
Eccentricity
0.0000862
Mean motion
15.69763287 rev/d
Perigee alt
359.0 km
Apogee alt
360.2 km
Semi-major
6,737.7 km
B*
9.4048e-4
RAAN
84.4460°
Arg perigee
80.6874°
Mean anomaly
279.4241°
Rev number
8,541

§ Raw data

STARLINK-11471 [DTC]1 62225U 24231H   26145.08790977  .00115198  00000+0  94048-3 0  99962 62225  53.1565  84.4460 0000862  80.6874 279.4241 15.69763287 85410

JSON: /api/v1/satellites/62225 · /tle

For live sub-satellite position, see the globe view (requires WebGL).

§ Visibility from observer

Set your observer location to see the next 7 days of passes ≥ 10°. The values pass through the URL so the page stays shareable.

No JS? Fill the form by hand. The geolocation button needs JavaScript.